www.pogodaiklimat.ru
ПОГОДА в Бутуане
Время
(UTC), дата
18 8.11
21 8.11
00 9.11
03 9.11
06 9.11
09 9.11
12 9.11
15 9.11
18 9.11
21 9.11
00 10.11
03 10.11
06 10.11
09 10.11
12 10.11
15 10.11
18 10.11
21 10.11
00 11.11
03 11.11
06 11.11
09 11.11
12 11.11
15 11.11
18 11.11
21 11.11
00 12.11
03 12.11
06 12.11
09 12.11
12 12.11
15 12.11
18 12.11
21 12.11
00 13.11
03 13.11
06 13.11
09 13.11
12 13.11
15 13.11
18 13.11
21 13.11
00 14.11
03 14.11
06 14.11
09 14.11
12 14.11
15 14.11
18 14.11
21 14.11
00 15.11
03 15.11
06 15.11
09 15.11
12 15.11
15 15.11
Ветер
(напр.,м/с)
Видим. Явления Облачность Т
(С)
Тd
(С)
f
(%)
Тe
(С)
Тes
(С)
Комфортность P
(гПа)
Po
(гПа)
Тmin
(С)
Tmax
(С)
R
(мм)
R24
(мм)
S
(см)
ЮВ 1 9000 м осадки на расстоянии 9/4 450 м
[Cb cap Ac As]
+24.4 +23.7 96 +33 +33 очень
душно
1010.2 1004.9
штиль 0 9000 м осадки на расстоянии 9/3 450 м
[Cb cap Ac As]
+24.0 +23.2 95 +32 +32 очень
душно
1010.0 1004.7
В 2 12 км {туман} 1/1 540 м
[Cu med, cong Cs]
+26.4 +24.9 91 +38 +42 очень
душно
1012.1 1006.8 +23.3 4
СВ 2 12 км 3/3 540 м
[Cu hum]
+31.4 +24.0 65 +43 +55 опасность
перегрева
1011.1 1005.9
С 3 12 км 3/3 540 м
[Cu med, cong]
+32.0 +23.1 59 +42 +49 опасность
перегрева
1008.8 1003.6
С 2 12 км 4/3 540 м
[Cu med, cong Cs]
+29.8 +24.8 75 +43 +43 опасность
перегрева
1009.2 1004.0
Ю 1 10 км 4/3 540 м
[Cu med, cong Cs]
+27.6 +25.1 86 +40 +40 очень
душно
1011.8 1006.5 +32.2
штиль 0 9000 м 4/1 540 м
[Cu med, cong Ci fib]
+26.4 +24.8 91 +38 +38 очень
душно
1011.9 1006.6
СЗ 3 5000 м слаб. ливневой дождь 10/4 450 м
[Cb cap Ac As]
+25.0 +23.6 92 +34 +34 очень
душно
1010.4 1005.1 2
ЮЗ 1 8000 м осадки на расстоянии {ливн. осадки} 9/4 450 м
[Cb cap Ac As Cs]
+24.3 +23.2 94 +33 +33 очень
душно
1010.3 1005.0 0.4
СЗ 4 12 км осадки на расстоянии {ливн. осадки} 6/3 450 м
[Cb cap Ac As]
+29.2 +25.1 79 +42 +44 опасность
перегрева
1012.0 1006.8 +24.0 3
СЗ 4 12 км 4/3 540 м
[Cu med, cong Ac trans]
+31.6 +23.0 60 +42 +49 опасность
перегрева
1011.4 1006.2
С 3 12 км осадки на расстоянии 4/3 450 м
[Cb cap Ac trans Cs]
+31.4 +23.8 64 +43 +49 опасность
перегрева
1008.9 1003.7
С 3 12 км 4/3 540 м
[Cu med, cong Ac trans Cs]
+29.8 +24.5 73 +42 +42 опасность
перегрева
1008.3 1003.1
СЗ 4 8000 м осадки на расстоянии 6/4 450 м
[Cb cap Ac As]
+29.2 +23.3 71 +40 +40 очень
душно
1010.6 1005.4 +32.3
ЮЗ 1 8000 м осадки на расстоянии 6/4 450 м
[Cb cap Ac As]
+26.0 +23.0 84 +35 +35 очень
душно
1010.6 1005.3
Ю 1 8000 м осадки на расстоянии {ливн. осадки} 9/4 450 м
[Cb cap Ac As]
+26.1 +24.2 89 +36 +36 очень
душно
1009.0 1003.7 0.0
СЗ 1 8000 м в посл. час ливневой дождь 10/4 450 м
[Cb cap Ac As]
+26.3 +23.7 86 +36 +36 очень
душно
1008.8 1003.5 0.1
СЗ 1 12 км осадки на расстоянии {ливн. осадки} 9/4 450 м
[Cb cap Ac As]
+28.1 +25.7 87 +42 +43 опасность
перегрева
1010.1 1004.8 +25.8 0.1 0.1
СЗ 4 11 км осадки на расстоянии 9/4 450 м
[Cb cap Ac As]
+31.5 +23.9 64 +43 +46 опасность
перегрева
1009.9 1004.7
С 4 7000 м слаб. ливневой дождь 10/5 450 м
[Cb cap Ac As]
+29.2 +24.6 76 +41 +42 опасность
перегрева
1009.4 1004.2 +33.0 0.0
штиль 0 6000 м в посл. час гроза {ливн. осадки} 10/4 450 м
[Cb cap Ac As]
+26.1 +24.2 89 +36 +36 очень
душно
1009.2 1003.9 3
С 1 9000 м осадки на расстоянии {гроза, ливн. осадки} 9/3 450 м
[Cb cap Ac As Cs]
+26.2 +24.5 90 +37 +37 очень
душно
1010.8 1005.5 +31.7 3
С 2 8000 м осадки на расстоянии {гроза, ливн. осадки} 10/3 450 м
[Cb cap Ac As]
+26.4 +24.8 91 +38 +38 очень
душно
1010.8 1005.5 4
СЗ 1 8000 м осадки на расстоянии {гроза, ливн. осадки} 10/3 450 м
[Cb cap Ac As]
+26.8 +24.8 89 +38 +38 очень
душно
1009.4 1004.1 4
З 1 8000 м осадки на расстоянии 10/3 450 м
[Sc Ac As]
+25.8 +24.0 90 +36 +36 очень
душно
1009.2 1003.9
З 1 10 км мгла {туман} 10/3 450 м
[Cb cap Ac As]
+26.6 +24.7 89 +38 +39 очень
душно
1011.5 1006.2 +25.0 8 8
З 3 11 км мгла {туман} 9/3 450 м
[Cb cap Ac As]
+29.9 +24.8 74 +43 +47 опасность
перегрева
1010.5 1005.3 0.3
В 6 11 км мгла {туман} 9/3 450 м
[Cb cap Ac As]
+28.4 +23.3 74 +38 +40 очень
душно
1009.1 1003.9 0.3
СЗ 1 11 км осадки на расстоянии {туман} 8/4 450 м
[Cb cap Cs]
+29.0 +22.3 67 +38 +38 очень
душно
1008.8 1003.6
Ю 1 11 км {туман} 4/3 540 м
[Cu med, cong Ac As]
+26.2 +23.5 85 +36 +36 очень
душно
1010.3 1005.0 +30.8
Ю 1 11 км осадки на расстоянии 8/3 450 м
[Cu med, cong Ac As Cs]
+25.2 +23.2 89 +34 +34 очень
душно
1010.3 1005.0
ЮВ 1 11 км осадки на расстоянии {ливн. осадки} 10/4 450 м
[Cb cap Ac As]
+24.9 +23.8 94 +34 +34 очень
душно
1009.1 1003.8 17
Ю 1 7000 м слаб. дождь 10/4 450 м
[Cb cap Ac As]
+24.8 +23.4 92 +33 +33 очень
душно
1010.2 1004.9 8
СЗ 1 10 км в посл. час дождь {ливн. осадки} 10/4 450 м
[Cb cap Ac As]
+25.2 +23.4 90 +34 +35 очень
душно
1011.8 1006.5 +23.8 38 38
С 3 11 км осадки на расстоянии 10/4 450 м
[Cb cap Ac As]
+28.0 +24.0 79 +39 +41 очень
душно
1011.3 1006.0
З 2 11 км осадки на расстоянии {туман} 9/4 450 м
[Cb cap Ac As]
+30.0 +24.5 72 +42 +45 опасность
перегрева
1008.2 1003.0
С 1 11 км осадки на расстоянии {туман} 8/3 450 м
[Cb cap Ac As]
+28.3 +23.6 76 +39 +39 очень
душно
1008.2 1003.0
штиль 0 12 км {туман} 6/3 540 м
[Cu med, cong Ac trans Cs]
+25.8 +23.6 88 +35 +35 очень
душно
1010.4 1005.1 +30.5
Ю 1 12 км 5/3 540 м
[Cu med, cong Ci fib]
+24.8 +23.1 90 +33 +33 очень
душно
1010.7 1005.4
З 2 10 км 4/3 540 м
[Cu med, cong Ac trans Cs]
+24.2 +22.8 92 +32 +32 очень
душно
1008.9 1003.6
В 1 10 км 6/3 540 м
[Cu med, cong Ac As]
+23.7 +22.6 94 +31 +31 очень
душно
1008.4 1003.1
СВ 1 13 км осадки на расстоянии 1/1 450 м
[Cb cap]
+27.8 +23.5 77 +38 +43 очень
душно
1009.7 1004.4 +23.3
С 5 12 км осадки на расстоянии {туман} 3/1 450 м
[Cb cap]
+31.4 +25.0 69 +45 +52 опасность
перегрева
1009.4 1004.2
С 6 12 км осадки на расстоянии {туман} 5/3 450 м
[Cb cap Ac trans]
+30.8 +25.0 71 +44 +47 опасность
перегрева
1007.0 1001.8
С 4 12 км осадки на расстоянии {туман} 5/4 450 м
[Cb cap Ac As]
+30.1 +24.8 73 +43 +43 опасность
перегрева
1006.8 1001.6
ЮВ 1 11 км осадки на расстоянии {туман} 4/1 450 м
[Cb cap Ac trans]
+27.4 +25.0 87 +39 +39 очень
душно
1009.2 1003.9 +31.9
ЮЗ 1 12 км осадки на расстоянии 4/1 450 м
[Cb cap Cs]
+26.6 +24.6 89 +38 +38 очень
душно
1009.8 1004.5
штиль 0 10 км осадки на расстоянии 9/4 450 м
[Cb cap Ac As]
+26.6 +24.7 89 +38 +38 очень
душно
1007.5 1002.2
В 1 11 км осадки на расстоянии 8/3 450 м
[Cb cap Ac As]
+25.4 +24.3 94 +35 +35 очень
душно
1007.8 1002.5
Ю 1 12 км осадки на расстоянии 6/3 450 м
[Cb cap Ac As]
+27.3 +25.6 90 +40 +43 очень
душно
1010.0 1004.7 +24.5
С 3 13 км осадки на расстоянии 4/4 450 м
[Cb cap]
+31.6 +24.9 68 +45 +53 опасность
перегрева
1009.6 1004.4
С 8 13 км осадки на расстоянии 3/3 450 м
[Cb cap]
+31.9 +25.0 67 +45 +47 опасность
перегрева
1007.8 1002.6
С 5 13 км осадки на расстоянии 3/3 450 м
[Cb cap]
+30.2 +23.5 67 +41 +41 опасность
перегрева
1008.3 1003.1
ЮЗ 1 11 км осадки на расстоянии 4/1 450 м
[Cb cap Ci fib]
+28.4 +24.8 81 +41 +41 опасность
перегрева
1010.0 1004.7 +32.0
штиль 0 12 км 4/1 540 м
[Cu med, cong Ci fib]
+26.4 +24.5 89 +37 +37 очень
душно
1010.3 1005.0
Местоположение метеостанции Бутуан (Филиппины): широта 8.93 долгота 125.51 высота над уровнем моря 46 м.
В архиве по умолчанию представлена погода в Бутуане за последнюю неделю. Архивные данные за месяц целиком и за предыдущие месяцы, начиная с января 2011 года, Вы можете получить, выбрав интересующий диапазон дат из раскрывающегося списка и нажав кнопку "Найти!".
*Определитесь, кто Вы:
Внимание! Время в таблицах - всемирное. Для получения местного времени необходимо прибавить поправку, которая равна 8 ч.
Смотрите также архив погоды в соседних городах и на ближайших метеорологических станциях:
Партнеры нашего сайта:      
Пояснения к столбцам:
  • Ветер - указаны скорость ветра в м/с - средняя за 10 мин, порывы в срок и между сроками (в фигурных скобках) и направление, откуда дует ветер: С - северный,
  • СВ - северо-восточный, В - восточный, ЮВ - юго-восточный, Ю - южный, ЮЗ - юго-западный, З - западный, СЗ - северо-западный.
  • Видимость - горизонтальная дальность видимости в метрах или километрах. При видимости от 1 до 10 км при отсутствии осадков обычно наблюдается дымка, при ухудшении видимости до 1 км и менее - туман. В сухую погоду видимость может ухудшаться дымом, пылью или мглою.
  • Явления - указаны атмосферные явления, наблюдавшиеся в срок или в последний час перед сроком; фигурными скобками обозначены явления, наблюдавшиеся между сроками (за 1-3 часа до срока); квадратными скобками обозначены град или гололедные отложения с указанием их диаметра в мм.
  • Облачность - указаны через наклонную черту общая и нижняя облачность в баллах и высота нижней границы облаков в метрах; квадратными скобками обозначены формы облаков: Ci - перистые, Cs - перисто-слоистые, Cc - перисто-кучевые, Ac - высококучевые, As - высокослоистые, Sc - слоисто-кучевые, Ns - слоисто-дождевые, Cu - кучевые, Cb - кучево-дождевые. Подробнее классификацию облаков см. в Атласе облаков (PDF).
  • T - Температура воздуха - температура, измеренная на высоте 2 м над землей.
  • Td - Температура точки росы - температура, при понижении до которой содержащийся в воздухе водяной пар достигнет насыщения.
  • f - Относительная влажность воздуха - влажноcть воздуха, измеренная на высоте 2 м над землей.
  • Te - Эффективная температура - температура, которую ощущает одетый по сезону человек в тени. Характеристика душности погоды. При расчете учитывается влияние влажности воздуха и скорости ветра на теплоощущения человека.
  • Tes - Эффективная температура на солнце - температура, которую ощущает человек, с поправкой на солнечный нагрев. Характеристика знойности погоды. Зависит от высоты солнца над горизонтом, облачности и скорости ветра. Ночью, в пасмурную погоду, а также при ветре 12 м/с и более поправка равна нулю.
  • P - Атмосферное давление - приведенное к уровню моря атмосферное давление.
  • Po - Атмосферное давление - измеренное на уровне метеостанции атмосферное давление.
  • Tmin - Минимальная температура - минимум температуры воздуха на высоте 2 м над землей.
  • Tmax - Максимальная температура - максимум температуры воздуха на высоте 2 м над землей.
  • R - Количество осадков - Количество выпавших осадков за период времени, мм. При наведении курсора мыши на число - период времени, за который выпало указанное количество осадков.
  • R24 - Количество осадков - Количество выпавших осадков за 24 часа, мм.
  • S - Снежный покров - Высота снежного покрова, см. При наведении курсора мыши на число - состояние снежного покрова и степень покрытия местности в баллах.